This demonstration page uses our WeatherBlox Daily Observations layout. Learn more.

Hourly Observations for September 28, 2020

Temp ( °F °C ) Dew Point ( °F °C ) Humidity (%) Winds ( mph kmh ) Pressure ( in mb ) Visibility ( mi km ) Precip ( " mm )
12:15 am 00:15 Mostly Cloudy 61 16 61 16 100 100 SSW 6 9 29.92 1013 10 16.0934 0 0
12:35 am 00:35 Mostly Cloudy 61 16 61 16 100 100 SSW 3 6 29.92 1013 10 16.0934 0 0
12:55 am 00:55 Mostly Cloudy 61 16 61 16 100 100 SSW 5 7 29.91 1013 10 16.0934 0 0
1:15 am 01:15 Mostly Cloudy 61 16 61 16 100 100 S 3 6 29.9 1012 10 16.0934 0 0
1:35 am 01:35 Partly Cloudy 61 16 61 16 100 100 Calm 29.9 1012 10 16.0934 0 0
1:55 am 01:55 Partly Cloudy 61 16 61 16 100 100 Calm 29.89 1012 10 16.0934 0 0
2:55 am 02:55 Clear 61 16 61 16 100 100 S 5 7 29.89 1012 10 16.0934 0 0
3:15 am 03:15 Clear 59 15 59 15 100 100 S 3 6 29.89 1012 10 16.0934 0 0
3:35 am 03:35 Partly Cloudy 59 15 59 15 100 100 Calm 29.88 1012 10 16.0934 0 0
3:55 am 03:55 Partly Cloudy 59 15 59 15 100 100 WSW 5 7 29.88 1012 10 16.0934 0 0
4:15 am 04:15 Mostly Cloudy 59 15 59 15 100 100 SW 3 6 29.88 1012 10 16.0934 0 0
4:35 am 04:35 Mostly Cloudy 59 15 59 15 100 100 SSW 5 7 29.88 1012 10 16.0934 0 0
4:55 am 04:55 Cloudy 59 15 59 15 100 100 Calm 29.88 1012 10 16.0934 0 0
5:15 am 05:15 Cloudy 59 15 59 15 100 100 S 5 7 29.88 1012 10 16.0934 0 0
5:35 am 05:35 Cloudy 59 15 59 15 100 100 S 6 9 29.88 1012 10 16.0934 0 0
5:55 am 05:55 Cloudy 59 15 59 15 100 100 SW 5 7 29.88 1012 7 11.26538 0 0
6:15 am 06:15 Cloudy 59 15 59 15 100 100 WSW 3 6 29.88 1012 7 11.26538 0 0
6:35 am 06:35 Cloudy 59 15 59 15 100 100 SSW 6 9 29.88 1012 3 4.82802 0 0
6:55 am 06:55 Cloudy 59 15 59 15 100 100 Calm 29.88 1012 7 11.26538 0 0
7:15 am 07:15 Cloudy 59 15 59 15 100 100 Calm 29.89 1012 10 16.0934 0 0
7:35 am 07:35 Cloudy 59 15 59 15 100 100 S 3 6 29.9 1012 10 16.0934 0 0
7:55 am 07:55 Cloudy 59 15 59 15 100 100 S 5 7 29.9 1012 10 16.0934 0 0
8:15 am 08:15 Cloudy 59 15 59 15 100 100 SW 3 6 29.91 1013 10 16.0934 0 0
8:35 am 08:35 Cloudy 59 15 59 15 100 100 SW 3 6 29.91 1013 10 16.0934 0 0
8:55 am 08:55 Cloudy 61 16 61 16 100 100 Calm 29.9 1012 10 16.0934 0 0
9:15 am 09:15 Cloudy 61 16 59 15 94 94 S 3 6 29.91 1013 10 16.0934 0 0
9:35 am 09:35 Cloudy 61 16 61 16 100 100 SSW 5 7 29.92 1013 10 16.0934 0 0
9:55 am 09:55 Cloudy 63 17 61 16 94 94 S 7 11 29.92 1013 10 16.0934 0 0
10:15 am 10:15 Cloudy 63 17 61 16 94 94 S 3 6 29.92 1013 10 16.0934 0 0
10:35 am 10:35 Cloudy 64 18 61 16 88 88 S 3 6 29.91 1013 10 16.0934 0 0
10:55 am 10:55 Cloudy 64 18 61 16 88 88 SSW 8 13 29.92 1013 10 16.0934 0 0
11:15 am 11:15 Mostly Cloudy 64 18 61 16 88 88 S 5 7 29.91 1013 10 16.0934 0 0
11:35 am 11:35 Mostly Cloudy 64 18 61 16 88 88 SSE 6 9 29.91 1013 10 16.0934 0 0
11:55 am 11:55 Cloudy 64 18 61 16 88 88 SSE 5 7 29.91 1013 10 16.0934 0 0
12:15 pm 12:15 Cloudy 66 19 61 16 83 83 S 7 11 29.91 1013 10 16.0934 0 0
1:35 pm 13:35 Mostly Cloudy 70 21 63 17 78 78 S 3 6 29.87 1012 10 16.0934 0 0
2:15 pm 14:15 Mostly Cloudy 73 23 64 18 74 74 S 10 17 29.87 1011 10 16.0934 0 0
2:35 pm 14:35 Mostly Cloudy 75 24 64 18 69 69 S 10 17 29.86 1011 10 16.0934 0 0
2:55 pm 14:55 Mostly Cloudy 73 23 64 18 74 74 S 10 17 29.85 1011 10 16.0934 0 0
3:15 pm 15:15 Cloudy 73 23 64 18 74 74 S 12 19 29.86 1011 10 16.0934 0 0
3:35 pm 15:35 Mostly Cloudy 75 24 64 18 69 69 S 10 17 29.86 1011 10 16.0934 0 0
3:55 pm 15:55 Mostly Cloudy 73 23 64 18 74 74 S 10 17 29.86 1011 10 16.0934 0 0
4:15 pm 16:15 Cloudy 75 24 64 18 69 69 S 8 13 29.85 1011 10 16.0934 0 0
4:35 pm 16:35 Cloudy 75 24 66 19 74 74 S 8 13 29.85 1011 10 16.0934 0 0
4:55 pm 16:55 Mostly Cloudy 77 25 66 19 69 69 S 9 15 29.83 1010 10 16.0934 0 0
5:15 pm 17:15 Mostly Cloudy 77 25 68 20 74 74 S 6 9 29.83 1010 10 16.0934 0 0
5:35 pm 17:35 Cloudy 77 25 68 20 74 74 S 7 11 29.83 1010 10 16.0934 0 0
5:55 pm 17:55 Cloudy 75 24 68 20 78 78 S 10 17 29.84 1010 10 16.0934 0 0
6:15 pm 18:15 Partly Cloudy 77 25 68 20 74 74 S 10 17 29.83 1010 10 16.0934 0 0
6:35 pm 18:35 Partly Cloudy 75 24 68 20 78 78 S 9 15 29.83 1010 10 16.0934 0 0
6:55 pm 18:55 Sunny 73 23 68 20 83 83 S 7 11 29.84 1010 10 16.0934 0 0
7:15 pm 19:15 Partly Cloudy 72 22 68 20 88 88 S 8 13 29.83 1010 10 16.0934 0 0
7:35 pm 19:35 Partly Cloudy 73 23 68 20 83 83 S 12 19 29.83 1010 10 16.0934 0 0
7:55 pm 19:55 Clear 73 23 68 20 83 83 S 9 15 29.83 1010 10 16.0934 0 0
8:15 pm 20:15 Partly Cloudy 72 22 68 20 88 88 S 10 17 29.83 1010 10 16.0934 0 0
8:35 pm 20:35 Partly Cloudy 72 22 68 20 88 88 S 10 17 29.84 1010 10 16.0934 0 0
8:55 pm 20:55 Partly Cloudy 72 22 68 20 88 88 S 9 15 29.84 1010 10 16.0934 0 0
9:15 pm 21:15 Cloudy 72 22 68 20 88 88 S 9 15 29.84 1010 10 16.0934 0 0
9:35 pm 21:35 Cloudy 72 22 68 20 88 88 S 9 15 29.85 1011 10 16.0934 0 0
9:55 pm 21:55 Mostly Cloudy 72 22 68 20 88 88 S 10 17 29.85 1011 10 16.0934 0 0
10:15 pm 22:15 Partly Cloudy 70 21 68 20 94 94 S 12 19 29.86 1011 10 16.0934 0 0
10:35 pm 22:35 Mostly Cloudy 70 21 68 20 94 94 S 13 20 29.86 1011 10 16.0934 0 0
10:55 pm 22:55 Partly Cloudy 70 21 66 19 88 88 S 9 15 29.86 1011 10 16.0934 0 0
11:15 pm 23:15 Partly Cloudy 70 21 66 19 88 88 S 9 15 29.86 1011 10 16.0934 0 0
11:35 pm 23:35 Mostly Cloudy 70 21 66 19 88 88 S 9 15 29.86 1011 10 16.0934 0 0
11:55 pm 23:55 Cloudy 70 21 66 19 88 88 S 8 13 29.86 1011 10 16.0934 0 0

Powered by AerisWeather